Theta_e
314 315 315 316 316 317 318 318 318 320 320 320 320 317 317 314 317 304 298 306 312 320 317 308 307 307 305 301 302 302 293 284 284 287 283 285 283 286 287 285 285 286 284 286 288
314 314 314 315 316 316 316 317 317 318 319 319 318 315 314 313 306 300 310 315 319 321 306 304 301 302 297 297 297 293 286 282 286 286 283 283 284 284 284 284 283 285 287 285 287
313 313 314 314 315 315 316 316 317 317 318 317 316 316 313 309 302 299 313 316 321 318 309 307 304 300 295 295 291 288 283 286 286 287 287 281 279 282 281 279 281 282 285 286 285
312 312 313 313 313 314 315 315 314 316 316 316 316 315 314 305 290 298 312 314 321 311 308 305 303 297 293 289 292 285 288 289 288 290 288 285 283 279 281 283 284 284 285 284 285
311 311 312 312 313 313 314 315 314 315 316 315 315 315 307 296 293 300 310 307 307 307 303 302 299 297 292 293 292 287 287 288 288 288 286 286 282 282 280 284 283 285 285 285 285
310 310 311 312 312 313 314 315 314 315 314 314 315 314 303 291 299 299 298 300 300 303 302 301 299 300 294 292 291 290 289 288 290 290 288 285 282 284 285 286 285 286 286 287 286
310 310 311 311 312 313 313 314 313 314 313 312 314 303 296 291 298 299 298 298 299 302 299 303 303 299 297 291 294 292 288 288 289 291 290 290 285 282 288 287 286 287 288 288 289
310 310 310 311 312 313 313 313 312 313 312 311 310 305 292 299 298 297 297 298 299 300 299 303 303 298 296 295 293 291 290 285 287 290 290 289 282 290 290 287 287 289 289 289 290
309 310 310 310 311 312 311 309 311 311 310 309 303 302 292 299 295 297 297 293 296 299 299 299 299 295 295 290 287 287 280 282 284 287 286 286 282 290 290 288 287 289 289 289 289
309 309 309 310 311 313 310 307 311 309 304 298 298 298 294 290 295 294 296 295 295 295 297 296 293 289 286 284 277 279 279 283 282 284 284 282 282 287 289 289 288 288 288 289 289
308 309 309 310 311 312 309 306 303 302 295 290 289 291 292 294 296 295 295 294 296 295 287 291 285 279 281 284 285 284 282 282 283 285 283 283 283 286 289 288 287 288 288 289 289
308 309 309 309 309 310 308 298 294 297 293 293 292 292 292 293 291 293 294 292 292 286 290 288 281 284 286 286 284 284 282 280 283 285 284 283 282 285 287 289 289 289 289 288 289
308 308 308 308 308 307 299 297 302 302 294 291 291 291 291 292 289 288 290 290 286 286 285 283 284 286 285 284 282 282 279 278 279 283 284 282 282 281 284 288 290 291 292 291 289
308 307 307 309 306 301 298 301 304 304 294 290 290 292 292 293 289 291 290 288 288 284 284 283 284 283 282 282 282 279 283 283 282 280 277 283 276 284 282 284 288 290 291 291 290
307 306 306 307 303 299 299 302 303 301 283 291 290 294 292 290 289 290 290 290 285 284 283 280 280 279 282 281 283 282 283 281 281 280 277 281 277 287 281 281 284 287 291 292 291
306 304 307 305 304 300 302 302 300 289 282 286 290 287 287 288 288 290 289 290 287 284 283 280 282 281 281 283 283 285 282 282 280 280 279 275 275 280 282 283 284 287 289 293 293
304 303 303 302 301 302 302 301 289 285 289 286 285 286 285 285 286 286 285 284 283 280 281 279 278 280 281 280 283 282 280 280 277 276 277 277 274 281 286 288 287 286 287 289 294
305 302 302 299 303 303 302 297 284 286 285 286 284 284 283 283 284 284 282 283 283 282 279 279 279 278 280 277 276 278 277 277 268 273 275 275 274 283 287 288 285 286 286 287 290
304 305 304 301 302 302 300 285 287 289 289 283 284 281 282 282 281 283 283 282 284 282 279 279 278 277 278 279 278 278 277 276 272 263 268 276 281 286 286 286 287 286 284 286 288
305 306 302 301 303 303 291 288 287 290 288 286 282 287 282 281 280 280 281 284 282 283 282 279 276 277 276 278 278 276 277 275 275 268 268 276 276 279 283 286 287 287 288 288 287
306 304 299 301 302 297 285 286 287 289 289 287 284 283 284 281 281 280 282 284 284 281 282 280 279 276 276 275 277 273 275 275 275 275 270 270 277 285 283 285 284 286 288 288 288
302 292 298 299 289 285 284 284 290 287 288 288 285 285 283 283 282 282 282 285 285 283 280 280 282 275 278 276 277 276 276 278 273 272 273 273 272 287 285 284 283 285 287 289 290
296 294 297 295 286 285 287 284 286 284 286 285 285 286 286 285 283 283 283 282 283 282 281 282 278 273 278 275 275 274 276 277 274 274 270 269 275 285 285 286 287 287 290 289 290
293 287 288 289 286 288 286 285 284 283 282 282 282 283 281 280 284 285 283 281 281 282 286 285 279 276 278 281 278 274 274 276 276 270 275 276 279 284 287 288 288 289 290 291 291
293 287 288 282 284 283 286 284 283 282 283 282 281 281 282 281 281 282 282 282 282 283 281 280 271 276 278 280 279 279 278 278 273 276 272 279 280 284 286 287 288 289 288 288 288
287 286 286 283 284 283 285 283 282 283 285 282 280 283 286 282 283 280 281 281 281 278 279 278 273 272 272 276 278 277 279 279 280 280 280 280 279 286 288 289 287 286 287 286 286
286 286 289 285 283 283 282 284 284 287 286 289 288 287 285 286 288 288 287 287 286 281 277 277 275 272 271 272 272 272 276 279 279 278 279 276 282 286 286 286 287 283 285 286 285
Wind_Speed
8 10 11 12 13 14 14 14 14 14 14 14 13 6 2 9 9 20 25 16 17 20 19 14 15 9 12 10 10 7 5 4 4 2 3 1 2 2 3 2 1 2 2 3 3
11 11 12 13 14 14 15 15 14 14 13 13 12 7 3 8 5 20 17 24 23 22 9 10 16 18 11 9 7 11 6 5 6 3 3 1 2 0 2 1 2 3 3 3 2
11 11 11 12 12 13 14 14 13 12 12 11 11 9 6 6 2 12 22 25 24 18 5 11 12 14 18 14 9 8 5 2 2 0 3 3 2 1 2 5 6 3 3 2 1
11 11 11 11 11 12 13 14 13 11 12 11 11 11 7 5 4 10 18 23 17 18 10 14 7 4 11 13 10 9 9 7 3 4 4 3 0 4 6 3 2 1 2 3 3
11 12 12 12 13 14 14 15 13 12 12 12 12 10 5 7 5 9 13 16 14 16 17 9 11 11 8 10 14 10 6 6 3 2 1 2 5 5 8 6 5 4 5 6 6
12 12 13 14 15 16 16 16 13 12 13 13 15 15 4 6 5 9 9 9 14 14 15 15 7 10 11 6 5 8 12 8 5 2 2 4 2 4 2 7 5 7 9 8 8
11 12 12 13 13 14 15 15 14 12 11 11 12 6 8 4 4 6 9 3 7 11 8 12 3 5 3 3 9 10 6 8 6 4 2 1 5 8 5 8 8 10 10 10 11
13 13 14 14 15 16 16 16 12 11 10 10 10 4 5 2 6 8 10 3 4 5 4 2 4 6 4 7 4 6 5 4 4 6 6 3 7 5 9 9 9 9 8 9 10
13 13 14 14 14 14 14 13 11 10 9 9 4 4 3 1 2 6 5 7 8 1 2 2 5 5 5 4 1 2 5 5 5 3 3 4 5 7 12 11 9 9 8 9 8
13 13 13 14 14 13 14 5 6 8 5 3 1 0 3 6 6 6 5 5 3 6 4 4 4 3 8 11 4 6 6 6 7 2 2 8 15 13 13 12 11 8 8 8 9
12 14 15 14 14 14 9 2 1 1 10 4 3 3 3 9 1 5 4 8 4 2 5 5 7 5 5 6 6 7 6 8 4 4 8 6 9 9 11 11 10 9 8 9 9
13 15 17 16 13 12 3 5 3 1 1 1 1 2 1 3 4 9 13 5 5 4 9 3 4 4 7 6 6 6 9 6 5 2 6 8 17 13 9 11 13 10 9 9 9
14 16 17 16 9 3 6 4 1 3 3 2 2 1 1 4 2 6 9 3 5 6 8 6 2 5 4 5 9 4 4 5 5 11 1 9 5 1 2 5 9 11 9 10 11
13 14 15 16 2 2 4 2 2 2 2 0 2 1 2 1 1 2 4 1 2 5 4 4 1 4 5 2 5 4 4 8 8 8 4 7 6 3 3 7 9 11 12 12 10
13 15 14 11 1 3 3 3 3 2 4 2 2 1 1 3 2 2 1 3 2 2 1 2 1 3 2 1 3 4 5 4 4 6 3 6 3 8 2 6 12 14 14 14 12
12 13 12 3 3 3 3 4 2 8 6 0 2 2 3 0 2 0 1 2 2 2 2 3 1 4 6 3 3 9 7 6 3 1 4 3 4 9 3 4 2 6 17 16 14
10 9 6 2 2 4 4 2 7 5 4 4 1 2 1 2 1 3 2 2 2 4 2 3 3 2 2 4 3 4 4 4 6 5 5 5 3 13 7 7 6 5 6 13 13
10 11 4 2 3 3 2 4 2 3 6 1 1 2 1 4 1 3 4 3 3 0 2 1 5 0 1 2 1 3 2 4 4 3 6 2 7 8 1 4 1 4 1 1 11
8 1 1 3 3 2 2 4 7 6 3 4 1 1 1 1 1 3 3 2 4 3 1 4 3 3 3 2 3 1 1 1 2 2 3 5 8 13 3 3 6 3 2 7 8
3 3 3 5 4 2 6 5 4 3 2 1 2 4 3 3 1 1 3 2 4 3 1 0 5 0 2 2 1 1 1 0 3 4 5 5 3 8 6 9 10 10 7 8 6
2 3 2 5 3 4 4 7 3 3 1 2 2 3 4 1 2 1 5 2 3 2 1 1 3 1 2 7 7 1 2 1 1 3 4 3 7 6 3 2 7 8 7 7 5
1 2 4 5 4 1 4 7 2 3 2 3 2 4 4 1 4 5 7 4 5 3 2 2 3 4 5 4 3 3 2 6 5 7 4 3 9 15 8 5 5 8 9 10 8
3 1 3 2 4 3 3 3 2 4 5 4 5 4 2 5 2 6 2 5 6 5 3 2 2 6 5 2 4 3 3 2 4 1 7 5 11 3 9 14 13 16 20 12 13
3 2 3 4 2 5 5 4 3 2 2 1 0 2 1 3 3 1 3 1 2 3 3 1 2 8 11 12 2 3 5 5 7 4 11 16 35 16 24 25 17 18 20 22 21
2 3 2 5 4 4 5 6 4 4 2 3 3 3 1 3 5 1 3 2 4 1 2 3 5 6 9 12 10 14 12 10 15 14 12 32 30 27 27 26 25 23 22 20 17
7 5 1 2 2 7 5 6 6 3 4 0 3 3 2 3 3 3 3 3 5 1 4 1 5 2 6 11 17 20 10 17 21 22 24 26 35 22 27 20 15 15 16 16 13
2 1 3 7 5 5 6 6 7 9 5 3 5 5 5 4 5 3 3 4 5 2 4 3 2 1 7 2 8 11 14 20 7 2 9 13 21 20 19 18 18 9 9 10 9
Wind_Direction
23 18 14 11 8 4 359 350 352 352 345 339 349 2 244 302 311 29 34 346 334 327 315 14 37 74 55 32 24 308 89 61 34 43 103 239 288 26 278 290 334 108 264 312 273
13 9 6 4 1 357 356 351 349 347 345 348 356 6 321 315 313 32 4 349 334 324 337 27 52 69 54 39 22 16 62 30 345 355 121 161 256 225 276 279 238 200 172 273 304
9 3 360 359 352 351 351 348 342 338 340 348 348 340 308 306 290 16 354 337 328 313 4 88 86 58 70 50 23 24 64 182 346 96 142 177 250 338 215 240 227 189 161 180 273
4 355 350 344 343 344 344 346 341 337 334 346 341 324 317 259 41 8 351 340 345 354 41 43 55 41 78 84 41 81 38 19 329 15 329 350 309 259 216 260 283 218 229 185 207
1 351 343 340 340 342 343 345 344 343 333 337 332 321 310 63 47 337 349 342 355 17 21 21 36 73 66 112 100 104 150 105 98 70 143 244 284 252 236 220 206 222 229 228 203
358 354 348 345 345 341 339 340 333 337 337 332 328 314 253 72 318 356 349 1 10 17 30 24 42 78 73 69 33 141 139 157 199 170 171 290 262 343 274 164 207 232 235 231 224
359 355 349 345 342 337 331 326 325 325 327 326 326 321 59 81 317 348 338 330 20 20 46 19 43 6 119 95 138 165 128 172 179 170 203 223 234 233 220 183 221 228 230 218 227
356 353 345 342 339 335 327 318 314 310 303 311 320 296 70 40 329 5 349 89 43 35 51 360 320 78 38 109 185 259 217 137 149 174 119 140 289 162 149 185 227 236 227 225 227
351 348 343 340 335 326 323 314 300 309 291 292 296 317 66 194 1 353 21 338 304 212 121 247 295 116 169 205 199 331 351 357 143 154 163 170 277 143 164 192 237 240 213 221 219
346 343 340 339 334 322 319 292 302 293 274 252 67 28 52 352 333 323 23 305 304 294 262 241 217 51 25 22 42 333 341 332 350 91 278 265 257 262 172 198 217 233 213 215 224
344 340 338 339 337 321 337 257 302 101 40 56 353 312 11 323 215 14 349 313 226 244 16 351 41 46 16 6 320 278 273 296 6 95 319 272 266 262 183 193 220 221 220 209 214
343 338 335 335 334 313 287 57 82 352 102 76 118 183 350 323 307 31 341 3 349 1 335 3 56 20 318 274 294 292 315 12 293 100 305 299 292 264 218 203 203 217 225 212 200
341 338 332 330 319 9 74 81 313 281 274 81 76 11 320 323 57 333 358 313 15 23 3 59 26 324 318 336 353 61 15 3 300 310 300 301 272 279 238 170 200 221 224 210 198
340 339 333 330 15 322 59 48 309 312 351 356 144 124 219 281 182 340 13 59 124 37 12 65 22 318 311 75 349 318 25 323 325 355 333 9 283 297 172 230 206 220 221 223 215
347 345 336 352 330 39 36 326 317 248 7 77 85 63 251 327 353 145 212 261 62 56 325 261 306 335 294 47 330 285 344 295 300 323 52 340 56 260 104 240 234 222 221 222 217
350 346 330 332 61 30 335 312 277 42 259 38 341 326 302 254 157 204 199 117 20 165 45 83 2 334 356 311 246 299 292 200 231 225 7 234 98 286 209 206 163 200 215 213 211
354 352 17 336 40 340 318 257 31 138 350 308 359 16 347 336 320 356 307 226 198 14 256 151 118 86 328 302 224 275 316 335 351 5 226 99 343 247 282 277 224 243 221 201 205
341 333 31 52 351 322 246 51 129 230 223 22 294 233 336 11 219 312 291 291 40 266 309 249 321 21 319 54 277 355 30 134 288 308 289 7 248 260 290 316 158 356 180 260 201
322 181 198 38 329 265 70 65 215 218 94 143 194 266 179 170 241 340 252 292 57 238 232 344 221 140 46 335 358 345 357 320 99 107 62 247 284 305 356 31 357 226 218 257 261
327 292 91 335 331 265 77 230 248 19 89 50 269 202 240 181 276 20 270 135 138 44 55 113 300 291 120 235 107 307 322 57 344 324 286 261 279 239 340 5 357 355 318 285 229
261 286 46 333 280 51 173 224 260 90 351 295 312 311 289 340 191 222 277 347 15 110 359 77 124 237 139 203 188 85 195 352 11 170 218 316 265 222 10 349 312 314 330 326 330
63 241 5 318 60 90 176 192 242 169 125 225 253 237 223 291 231 222 231 206 33 164 74 4 165 253 220 58 52 81 120 165 135 274 250 194 262 285 283 314 269 305 290 286 249
196 242 340 327 166 224 285 261 273 181 194 183 229 235 332 211 294 232 156 9 34 36 80 321 298 332 315 55 12 136 175 237 100 149 187 240 255 287 316 309 300 301 298 306 322
128 242 354 31 351 173 156 215 216 24 97 79 1 319 176 246 235 280 22 105 54 92 68 38 244 187 256 270 3 170 200 203 170 200 263 241 278 267 275 280 291 289 306 306 304
145 222 204 182 232 201 172 142 161 172 81 50 44 66 132 15 335 282 15 55 76 128 85 132 220 236 254 272 281 268 269 244 212 234 231 272 265 280 282 284 284 290 290 294 296
148 148 23 119 94 140 169 200 172 127 125 305 123 179 327 206 203 312 66 196 234 177 164 42 268 358 285 253 263 283 272 263 257 251 256 261 271 272 278 284 291 282 283 280 286
149 74 123 149 139 146 191 168 179 154 199 244 188 185 210 250 335 349 6 303 254 232 180 168 195 52 270 29 329 292 230 242 253 236 226 255 270 288 299 301 297 312 297 293 295